Regional Weather Roundup
Issued by NWS

Home | Current Version | Previous Version | Text Only | Print | Product List | Glossary Off
Versions: 1 2 3 4 5 6 7 8 9 10 11 12 13 14 15 16 17 18 19 20 21 22 23 24 25 26 27 28 29 30 31 32 33 34 35 36 37 38 39 40 41 42 43 44 45 46 47 48 49 50

000
ASUS45 KABQ 231701
RWRNM
NEW MEXICO REGIONAL WEATHER ROUNDUP
NATIONAL WEATHER SERVICE ALBUQUERQUE NM
1100 AM MDT SAT JUL 23 2016

NOTE: "FAIR" MEANS FEW OR NO CLOUDS BELOW 12,000 FEET AGL WITH NO
       SIGNIFICANT WEATHER OR OBSTRUCTIONS TO VISION.

      THIS PRODUCT IS RELEASED AS TWO VERSIONS.  ONE VERSION NEAR
      THE TOP OF THE HOUR CONTAINING PRELIMINARY DATA FROM ALBUQUERQUE
      AND OTHER STATIONS.  A FINAL VERSION WITH ADDITIONAL DATA IS
      ISSUED ABOUT 10 MINUTES AFTER THE HOUR.

NMZ501-503-504-510>518-231800-
NORTHWEST PLATEAU/NORTHCENTRAL MOUNTAINS

CITY           SKY/WX    TMP DP  RH WIND       PRES   REMARKS
FARMINGTON     FAIR      83  48  29 VRB6      30.21F
LOS ALAMOS     FAIR      81  46  28 E6        30.33S
SANTA FE       FAIR      88  46  23 VRB6      30.24F
TAOS           FAIR      81  43  26 W7          N/A
ANGEL FIRE     FAIR      75  44  32 W15       30.41S

$$
NMZ402-403-502-505>509-231800-
WESTCENTRAL MOUNTAINS/SOUTHWEST MOUNTAINS

CITY           SKY/WX    TMP DP  RH WIND       PRES   REMARKS
GALLUP         FAIR      82  47  29 W7        30.29F
GRANTS         FAIR      85  44  23 NW6       30.30F
SILVER CITY    FAIR      87  46  23 NW3       30.19S

$$
NMZ407-409-411-412-231800-
SOUTHERN DESERTS

CITY           SKY/WX    TMP DP  RH WIND       PRES   REMARKS
LORDSBURG      FAIR      90  50  25 W7G16     30.11S
DEMING         FAIR      94  47  20 E12G17    30.09S
LAS CRUCES     FAIR      91  43  19 CALM      30.12R
ALAMOGORDO     FAIR      93  46  20 S8G20     30.10S
T OR C         FAIR      91  47  21 NE5       30.12F

$$
NMZ519>523-231800-
CENTRAL VALLEYS/CENTRAL HIGHLANDS

CITY           SKY/WX    TMP DP  RH WIND       PRES   REMARKS
ALBUQUERQUE    FAIR      87  49  26 NW5       30.19F
DOUBLE EAGLE   MOSUNNY   88  52  29 NE7       30.22F
MORIARTY ARPT  FAIR      89  42  19 N7        30.24F
CLINES CORNERS FAIR      86  45  23 NW12      30.30F
BELEN          FAIR      88  44  21 W3        30.18S
SOCORRO        FAIR      89  46  22 NE8       30.14S

$$
NMZ524>526-539-540-231800-
SOUTHCENTRAL MOUNTAINS

CITY           SKY/WX    TMP DP  RH WIND       PRES   REMARKS
RUIDOSO          N/A     84  41  21 SW5       30.31S

$$
NMZ527>531-231800-
NORTHEAST HIGHLANDS/NORTHEAST PLAINS

CITY           SKY/WX    TMP DP  RH WIND       PRES   REMARKS
LAS VEGAS      FAIR      88  42  20 VRB7      30.26F
RATON          FAIR      86  47  25 VRB3      30.20F
CLAYTON        FAIR      94  47  20 SW12G22   30.10F

$$
NMZ532>537-231800-
EASTCENTRAL PLAINS

CITY           SKY/WX    TMP DP  RH WIND       PRES   REMARKS
TUCUMCARI      FAIR      96  49  20 SW18G26   30.05F
CANNON AFB     FAIR      91  52  26 S12G17    30.11F
CLOVIS AIRPORT FAIR      90  54  29 S14G22    30.13S

$$
NMZ028-029-538-231800-
SOUTHEAST PLAINS

CITY           SKY/WX    TMP DP  RH WIND       PRES   REMARKS
ROSWELL        FAIR      93  51  23 S15G21    30.06F
ARTESIA        FAIR      90  55  31 S12       30.06F
CARLSBAD       FAIR      91  55  29 SE9       30.03F
HOBBS          SUNNY     90  52  27 SE18      30.10F


$$



USA.gov is the U.S. government's official web portal to all federal, state and local government web resources and services.